Location: Frankfurt+am+Main
(50.1100°N, 8.4815°E)
Time: 18:52:48
(UTC+02:00)

ISS - Visible Passes

Search period start: 26 March 2017 00:00
Search period end: 05 April 2017 01:00
Orbit: 399 x 409 km, 51.6° (Epoch: 27 March)

Date Brightness Start Highest point End Pass type
(mag) Time Alt. Az. Time Alt. Az. Time Alt. Az.
27 Mar -1.3 21:50:43 10° SSW 21:51:10 13° SSW 21:51:10 13° SSW visible
28 Mar -2.3 20:58:59 10° S 21:01:24 19° SE 21:01:52 19° SE visible
28 Mar -1.0 22:34:13 10° WSW 22:34:35 13° WSW 22:34:35 13° WSW visible
29 Mar -3.7 21:41:56 10° SW 21:45:00 52° SSE 21:45:00 52° SSE visible
30 Mar -3.1 20:49:48 10° SW 20:52:48 34° SSE 20:55:13 14° E visible
30 Mar -2.4 22:25:51 10° W 22:27:53 35° W 22:27:53 35° W visible
31 Mar -4.0 21:33:24 10° WSW 21:36:40 83° SSE 21:37:53 36° ENE visible
31 Mar -0.8 23:10:00 10° W 23:10:33 14° W 23:10:33 14° W visible
01 Apr -3.7 20:41:03 10° WSW 20:44:15 60° SSE 20:47:30 10° ENE visible
01 Apr -3.3 22:17:30 10° W 22:20:25 59° NW 22:20:25 59° NW visible
02 Apr -3.7 21:25:00 10° W 21:28:15 73° N 21:30:10 23° ENE visible
02 Apr -1.3 23:01:36 10° WNW 23:02:49 21° WNW 23:02:49 21° WNW visible
03 Apr -3.8 20:32:30 10° WSW 20:35:46 90° NNW 20:39:03 10° ENE visible
03 Apr -3.7 22:09:06 10° W 22:12:22 65° N 22:12:30 64° NNE visible
04 Apr -3.5 21:16:34 10° W 21:19:50 64° N 21:22:07 18° ENE visible
04 Apr -1.8 22:53:07 10° WNW 22:54:46 27° WNW 22:54:46 27° WNW visible
